Weather in Bakhta

Russia / Krasnoyarsk Krai     62°27′48″N   89°00′14″E
temp.,
°C
wind,
m/s
gust,
m/s
humid.,
%
clouds,
%
prec.,
mm/h
press.,
hPa
HPBL,
m
28 february, sun
sun2801:00−29s2298100 0.1 102759
04:00−29sse1298100 0.1 102741
07:00−31sse1299100 0.1 102919
10:00−29se1298100 0.0 102994
13:00−24s1288100 0.1 1030480
16:00−22sse1283100 0.1 1030774
19:00−26e1298100 0.1 103019
22:00−28ese1299100 0.0 103019
1 march, mon
mon101:00−29se12100100 0.1 103019
04:00−31ese12100100 0.0 103019
07:00−32ese1299100 0.1 103019
10:00−30e1298100 0.0 102994
13:00−24ese128799 0.0 1028406
16:00−22e1283100 0.0 1027622
19:00−26ene2295100 0.0 102719
22:00−30e229423 0.0 102719
2 march, tue
tue201:00−32e129416 0.0 102719
04:00−31e1293100 0.0 102719
07:00−32e229295 0.0 102819
10:00−29e138948 0.0 1028135
13:00−23ese128151 0.0 1028378
16:00−20ese127855 0.0 1027494
19:00−24e229141 0.0 102822
22:00−27ese239376 0.0 102868
3 march, wed
wed301:00−28ese239253 0.0 102851
04:00−30ese229117 0.0 102927
07:00−30ese239013 0.0 102955
10:00−27se358913 0.0 1029227
13:00−22se259048 0.0 1029353
16:00−19se2586100 0.0 1028449
19:00−21se2495100 0.0 102898
22:00−23se2593100 0.0 1029129
4 march, thu
thu401:00−24se2693100 0.0 1030156
04:00−26se379574 0.0 1030165
07:00−26se3109460 0.0 1032276
10:00−24sse4118277 0.0 1031431
13:00−20sse5107975 0.0 1031551
16:00−17sse5108171 0.0 1029624
19:00−19se4129082 0.0 1028488
22:00−20se4148881 0.0 1027620